OBJECT A, 60745

Orbit data source: Space-Track

You're viewing an Uncataloged Satellite

Recently launched and/or uncataloged satellites may have evolving metadata. Metadata may include but not limited to: Owner, Maufacturer, Bus, Motor, and Mission.

OBJECT A, 60745 is a satellite owned by Yunyao yuhang (CN) in SSO that was launched on Thu, 29 Aug 2024 UTC via a GUSHENXING 1 launch vehicle from the Yellow Sea Launch Area, China (YSLA). Unknown objects in Earth's orbit typically refer to objects detected orbiting the Earth but have not yet been identified or cataloged. These objects could be anything from previously untracked satellites, spent rocket stages, debris from satellite collisions, or even natural meteoroids temporarily captured by Earth's gravity.

Loading next visibility...
Identifier
60745, 2024-153A
Orbit
SSO
Last TLE update
6 hours ago
Origin
Flag of CNYYAO (CN / PRC)
Manufacturer
Changguang WJ
Mission
Operational Commercial Weather
Bus & Motor
YY-1, Unknown motor
Mass
~50 kg wet, ~50 kg dry
Launch date (UTC)
2024-08-29 (10 months ago)
Launch vehicle
GUSHENXING 1
Launch site
Yellow Sea Launch Area, China (YSLA)
Object type
Unknown
Shape & HBR
Box + 1 Pan, 5 m
Radar Cross Section
5.339 m², Medium (>0.1 m² and < 1m²)

Expand to show TLE details & history

TLE from 6 hours ago
0 OBJECT A
1 60745U 24153A   25182.18470801  .00014296  00000-0  63732-3 0  9990
2 60745  97.6414 307.0178 0011136 304.9814  55.0375 15.21474072 46358
Epoch: 2025-07-01T04:25Z
TLE epoch observation values (Epoch: 2025-07-01T04:25:58.772Z)
Latitude
-0°
Longitude
-38.96088°
Altitude
500.094 km
Speed
7.617 km/s
True Right ascension
20h 28m 04s
True Declination
0° 00' 00"
Sunlit
Object was in full shadow at epoch
Visualization orbit readout
Latitude
3.21673°
Longitude
141.70178°
Altitude
508.761 km
Speed
7.607 km/s
Apparent Right ascension
08h 57m 24s
Apparent Declination
-17° 32' 34"
Sunlit
Object is in daylight
Visualization observer readout
Local Sidereal Time
21:34:57
Azimuth
22.662° NE
Elevation
-66.196°
Doppler factor
1
Orbital elements
Apogee altitude
506.025 km
Perigee altitude
490.71 km
Semi-major axis
6,876.505 km
Eccentricity
0.00111
Inclination
97.6414°
RAAN
307.0178°
Arg. of periapsis
304.9814°
True anomaly
Unknown
Mean anomaly
55.0375°
Eccentric anomaly
Unknown
Mean motion
3.8062 °/min
Orbital period
94.58 mins
BSTAR
0.00063732
Loading maneuver chart data...
Loading SW <> Apogee altitude chart data...
Loading historical data...
Loading historical data...
Loading historical data...
Loading historical data...
Loading historical data...
Loading historical data...
Loading historical data...

OBJECT A Visibility forecast

Observer location: undefined°, undefined°

Span
Click to sort rows by Start time (UTC) header in descending order
Start Az.
Max El. time (UTC)
Max El. Az.
Max El.
End time (UTC)
End Az.
6 mins2025-07-01 20:46:35.294Z28.669° NE2025-07-01 20:49:35.294Z80.411° E31.141°2025-07-01 20:52:35.294Z162.21° S
4 mins2025-07-02 08:59:35.294Z225.906° WSW2025-07-02 09:00:35.294Z252.375° W25.538°2025-07-02 09:03:35.294Z319.818° NNW
|